Theta_e
307 297 292 291 295 296 297 298 298 297 296 295 296 295 292 294 294 295 295 296 297 294 292 294 294 295 296 298 299 299 298 298 298 299 299 300 301 301 301 301 302 302 304 307 308 308 308 308 309 309 309 312 315 315 316 317 319 320 321 320 319 321 322 321 321 320 320 319 318 318 319 319 318 319 319 322 323 325 327 329 330 328 328 328 329 329
304 296 295 296 297 299 298 298 297 297 296 295 294 293 290 295 290 296 295 297 296 294 291 292 292 294 296 298 299 299 298 298 299 299 299 300 300 301 302 302 302 303 306 309 309 309 308 307 308 308 308 309 312 313 314 315 317 318 319 319 319 320 321 321 321 319 319 320 320 319 319 319 317 317 318 317 319 321 325 326 327 327 328 329 329 327
294 293 297 299 300 299 298 298 297 295 296 296 292 291 291 291 294 296 295 296 298 295 290 292 291 294 296 298 299 299 299 300 300 299 300 300 299 301 302 302 303 302 304 306 309 308 308 307 308 307 307 309 311 312 312 313 314 315 317 318 318 319 319 319 319 318 317 318 317 317 315 317 313 314 317 317 316 317 320 323 323 324 327 328 328 327
290 294 298 300 299 297 296 295 295 297 296 293 292 290 288 295 292 289 293 295 295 293 289 291 291 293 296 297 297 299 299 300 300 301 301 301 300 300 301 302 302 302 303 305 308 307 306 307 306 305 306 307 308 309 309 311 312 315 315 316 317 317 318 317 317 315 316 315 314 314 314 314 314 313 312 315 315 316 319 320 321 321 324 324 325 325
293 297 297 299 298 298 295 296 295 291 290 294 295 293 292 295 293 292 292 294 295 295 296 292 291 292 295 294 296 299 300 299 299 299 300 301 303 303 303 303 304 302 302 304 306 307 306 306 305 306 306 307 307 308 308 310 312 314 314 315 316 316 316 316 315 314 314 313 313 313 312 309 307 308 308 309 309 313 316 317 318 320 318 320 321 323
294 297 301 297 299 296 297 293 294 295 289 292 295 295 294 294 293 294 296 293 289 288 294 294 282 282 290 291 292 294 297 297 298 299 300 301 301 301 302 303 303 305 305 304 304 305 306 307 305 304 305 305 306 307 308 309 311 311 312 314 314 314 314 315 314 314 314 312 312 311 310 308 307 306 306 310 311 312 314 315 316 315 315 316 318 318
295 297 300 297 297 296 297 295 296 296 290 289 290 296 297 295 295 294 294 292 283 281 291 293 284 281 289 290 293 293 293 294 295 299 300 300 300 300 302 303 303 305 305 305 305 306 305 305 305 305 304 305 305 305 307 308 309 310 312 313 314 313 313 314 313 313 312 312 312 312 311 310 310 309 308 307 308 312 314 314 312 312 312 313 314 315
296 296 297 298 297 296 295 291 296 295 292 287 296 297 297 295 294 295 294 293 288 294 295 293 290 281 282 289 291 292 292 293 294 296 297 298 299 300 299 302 304 305 304 306 305 305 304 304 305 304 304 305 305 305 307 308 309 309 311 312 313 313 312 313 313 313 312 311 310 309 309 309 309 309 307 309 310 312 311 311 311 310 310 311 312 313
297 294 296 295 296 292 292 297 300 297 293 293 296 299 297 296 296 296 292 290 289 287 282 289 293 283 281 289 295 293 291 291 294 295 297 298 298 298 300 302 304 304 304 306 305 305 305 303 304 304 304 305 305 306 307 308 308 309 310 311 311 312 311 312 312 312 311 311 311 309 309 307 308 309 309 309 310 310 310 311 310 309 309 309 308 310
297 298 298 299 294 291 295 294 297 300 292 294 298 299 298 297 297 295 290 288 286 283 280 286 291 282 282 288 291 291 290 291 293 295 296 296 298 300 302 301 301 302 302 302 303 303 303 303 303 303 305 304 304 306 307 307 308 309 309 310 310 310 310 311 311 312 310 310 309 309 307 307 306 308 309 309 309 309 308 310 309 309 307 307 305 303
296 297 296 299 296 297 294 294 296 297 298 299 298 297 295 294 291 291 288 285 284 279 281 289 292 287 279 286 289 288 292 293 295 295 297 299 299 301 302 302 303 302 303 303 302 301 301 301 302 302 302 303 304 305 306 307 307 308 309 308 309 309 310 311 311 311 310 309 309 308 307 307 307 307 308 307 306 307 305 308 307 307 306 305 304 301
296 296 296 298 298 298 297 294 297 299 299 299 294 290 291 288 287 286 285 285 279 277 285 287 292 291 279 282 291 293 294 295 295 295 296 298 298 301 302 303 303 301 302 301 301 300 299 299 299 300 300 302 304 304 304 305 306 307 307 308 308 308 309 310 310 310 309 309 308 307 307 307 308 308 309 308 306 306 306 308 306 305 304 302 301 300
291 293 297 297 298 297 295 292 294 296 297 296 292 289 282 281 281 279 283 278 278 277 284 284 287 284 286 289 292 294 293 297 296 296 298 297 299 301 302 302 301 301 301 301 301 300 299 298 298 298 299 301 302 303 304 305 305 306 306 307 307 307 307 308 309 308 307 307 307 307 307 307 308 309 309 309 307 307 307 307 305 304 303 301 299 299
288 295 296 295 295 298 298 289 286 285 290 292 288 284 281 277 276 273 277 280 281 282 282 283 289 281 287 289 294 295 296 295 296 299 299 300 299 299 302 303 303 302 301 302 303 302 300 301 299 299 299 300 302 303 303 304 305 305 306 306 306 306 307 307 308 307 307 306 306 306 307 307 308 309 310 308 307 307 308 307 306 304 304 302 300 299
280 282 291 293 288 297 296 295 292 290 291 291 293 290 283 280 276 273 276 274 276 280 282 283 280 279 279 285 291 296 296 295 296 298 298 299 300 299 300 301 303 301 302 302 302 304 304 303 302 301 300 300 301 302 303 304 304 305 305 306 306 306 307 307 307 306 306 306 306 306 307 307 307 309 309 309 308 306 307 308 308 306 306 304 302 301
286 286 294 298 295 297 295 298 298 294 290 291 292 295 286 283 287 279 281 281 279 280 279 279 280 283 286 292 293 294 294 294 293 295 296 295 297 297 299 299 300 301 301 303 302 303 303 304 303 302 301 301 301 302 303 303 304 305 305 306 306 306 306 307 306 306 306 306 306 306 306 307 307 307 308 307 307 306 307 307 308 307 306 305 304 303
286 281 295 296 295 295 296 298 297 298 282 288 290 284 288 292 290 283 281 283 280 278 277 282 284 287 289 293 295 296 295 294 292 294 294 295 295 294 295 298 302 301 299 300 300 301 302 302 303 303 302 302 302 302 303 303 305 305 305 305 305 306 306 306 306 306 305 305 304 304 305 305 305 306 306 307 308 307 306 306 307 306 304 303 303 302
284 287 291 293 291 294 293 296 298 296 299 291 283 289 293 295 293 285 278 280 278 275 278 280 280 283 281 280 290 291 290 292 292 293 294 295 295 295 296 298 301 301 301 301 301 301 301 301 302 302 302 302 302 302 303 303 305 305 305 305 305 305 305 306 306 305 305 304 303 303 303 304 304 304 304 306 307 306 304 304 304 303 303 303 303 301
292 282 287 291 293 294 297 297 295 297 296 292 289 298 290 281 281 283 281 275 273 273 276 279 280 282 284 285 286 287 290 290 292 293 293 293 294 295 296 298 301 300 301 302 301 301 302 301 301 301 301 301 301 302 303 304 305 305 304 305 305 305 305 305 306 304 304 303 303 303 302 302 302 303 302 302 305 305 304 303 303 302 302 302 301 298
293 283 285 289 291 293 294 292 284 287 294 297 296 292 295 287 283 280 281 281 279 274 273 278 279 279 288 287 290 290 290 291 292 291 292 293 296 298 298 300 302 301 301 301 301 302 302 301 300 300 300 300 301 301 301 302 303 304 304 304 304 304 304 304 304 304 303 303 303 302 302 302 302 303 303 303 304 304 304 304 303 303 302 301 298 297
287 289 280 285 291 292 283 288 287 289 286 284 285 285 288 285 289 284 284 282 279 276 275 274 276 281 288 291 292 292 293 293 294 295 296 296 296 295 299 302 302 302 302 301 301 301 302 300 300 299 299 298 299 299 299 301 303 303 303 303 303 304 303 304 304 303 303 302 302 300 300 300 300 301 302 302 304 304 303 302 302 301 300 297 296 295
286 284 283 283 283 283 287 293 292 293 293 290 289 287 289 285 282 279 279 287 283 280 276 276 277 284 291 294 295 293 293 295 295 294 294 296 296 299 301 303 302 302 301 300 300 300 301 299 298 298 298 297 296 297 298 300 300 302 303 303 303 303 303 303 304 304 302 301 302 299 300 299 298 298 297 297 298 300 301 299 299 298 296 296 295 294
293 288 283 281 284 287 291 295 296 294 296 293 292 289 292 290 286 281 278 279 284 283 284 280 278 284 292 293 293 293 294 296 296 295 295 296 299 300 302 302 302 301 300 300 300 301 299 300 298 296 296 296 296 297 296 298 301 302 302 302 302 302 302 303 303 303 302 301 300 299 298 298 297 296 294 294 294 295 296 297 297 296 296 295 292 292
296 285 282 284 289 290 292 295 295 295 295 291 292 292 289 287 288 285 282 281 281 282 281 280 279 284 292 292 294 295 294 296 294 295 296 296 299 300 301 300 300 300 301 301 299 298 299 296 297 296 295 295 295 295 298 299 299 301 301 301 301 301 301 301 302 302 301 300 299 298 296 296 295 293 293 294 294 293 293 294 294 293 295 294 291 290
287 286 286 281 280 283 285 288 287 291 292 286 286 291 292 292 291 288 285 284 282 282 283 280 277 283 293 292 294 293 294 294 294 295 296 297 297 299 299 300 301 301 301 299 299 298 296 295 295 295 294 294 294 294 296 297 299 299 299 300 301 301 301 301 301 301 300 298 297 295 295 294 293 294 293 293 293 292 293 293 293 292 293 292 291 290
290 288 287 281 278 276 275 276 278 281 285 287 290 290 292 292 291 285 284 282 281 283 285 282 282 288 294 293 293 292 293 292 293 295 295 297 297 298 298 301 300 301 299 299 299 297 296 297 296 295 295 296 296 296 296 296 297 298 298 300 299 300 300 301 300 300 299 298 296 295 294 294 293 293 293 293 292 292 291 291 290 290 290 291 290 289
286 288 289 287 285 283 283 285 289 290 285 284 285 288 289 291 292 290 286 283 282 284 284 285 286 287 290 292 292 293 290 292 293 293 296 296 296 297 298 298 299 299 299 299 299 298 297 296 298 298 297 297 297 296 297 296 297 297 297 298 298 300 300 300 299 299 298 296 296 295 294 293 293 293 293 292 292 291 291 290 288 288 289 289 289 288
287 287 289 290 288 289 291 291 293 293 288 288 286 286 289 289 287 287 286 284 289 283 282 288 289 287 289 291 293 294 294 294 296 296 296 296 296 298 300 300 300 298 296 297 298 298 298 298 297 297 297 297 297 297 297 297 297 297 297 298 297 297 298 300 298 296 296 294 294 295 294 293 292 292 292 291 291 290 290 289 288 287 287 287 288 287
287 285 288 289 288 290 291 291 292 291 291 291 290 289 287 289 287 285 286 289 289 285 283 288 288 287 290 292 294 295 295 296 296 295 296 296 295 298 299 296 296 296 296 297 297 298 298 300 299 298 298 298 297 297 297 297 296 296 296 297 297 297 298 296 296 295 295 294 295 295 294 292 293 292 292 291 291 290 289 288 287 287 287 287 287 287
289 286 288 289 288 289 290 291 292 290 291 290 290 290 291 289 289 289 289 291 290 288 290 290 290 289 292 293 295 296 297 297 298 298 298 297 298 298 297 297 296 296 296 298 299 300 301 301 299 298 299 298 297 297 296 295 296 296 296 296 296 296 296 294 295 295 295 295 295 294 293 292 292 291 291 290 290 289 289 287 286 286 286 287 287 286
292 286 291 288 286 287 290 291 292 292 291 289 291 292 292 291 291 291 290 290 290 289 291 290 289 289 294 297 296 298 299 298 298 297 298 299 298 297 296 296 296 297 299 300 300 300 300 300 300 299 298 299 299 298 297 297 296 296 295 296 296 296 296 295 295 295 294 295 294 293 292 292 291 290 290 289 289 288 287 286 285 285 286 285 285 285
291 285 290 287 284 284 288 288 289 290 289 288 288 290 290 290 288 290 288 291 289 288 289 289 287 288 294 296 297 297 297 296 296 298 298 299 298 297 296 296 297 298 299 300 301 300 299 299 299 300 300 300 299 299 298 297 296 295 295 295 295 295 294 294 295 294 294 294 292 292 292 291 290 289 289 288 287 287 286 285 284 284 284 284 284 284
288 285 283 285 284 284 287 287 286 286 286 284 286 289 291 291 292 292 293 294 294 294 289 287 288 294 295 296 295 295 296 296 297 298 298 299 299 297 296 298 299 299 299 300 300 300 300 300 300 300 300 300 301 300 300 300 296 295 295 294 295 293 293 295 294 294 293 292 292 291 291 290 289 289 288 288 287 285 284 284 284 284 284 284 284 283
288 287 285 287 283 284 287 284 285 284 278 280 292 295 293 291 291 289 290 292 294 295 292 295 295 296 296 296 295 295 296 297 298 299 300 299 298 295 297 298 298 299 300 300 299 300 301 301 301 300 300 300 300 300 300 298 298 297 296 294 291 292 293 293 293 293 293 291 291 291 290 290 288 288 287 287 286 285 284 283 283 284 285 285 284 284
286 287 285 287 284 283 286 284 281 277 280 291 295 296 296 295 294 293 293 294 295 295 295 295 296 296 297 298 298 298 298 299 299 299 300 300 297 298 298 299 300 300 300 300 300 300 301 301 301 300 298 299 299 296 294 293 295 292 291 292 292 292 292 292 292 292 291 291 290 289 289 289 288 287 286 285 285 284 283 283 283 283 284 284 284 284
286 286 285 285 285 285 283 283 276 278 287 291 293 294 296 296 295 293 290 293 295 295 296 295 296 297 298 298 299 299 299 298 296 297 299 300 299 299 299 299 300 300 300 301 300 301 301 301 301 299 299 296 296 294 292 292 289 290 290 289 291 290 290 290 290 290 290 290 289 289 289 288 287 287 285 285 284 284 283 283 284 284 284 284 284 284
291 287 285 283 287 280 283 283 281 287 287 288 288 287 290 288 288 289 285 289 295 296 296 295 296 297 298 298 299 299 295 292 293 298 299 299 300 299 300 301 301 300 301 301 301 301 301 300 298 296 294 293 294 292 291 289 288 289 287 289 288 289 289 289 290 290 290 289 289 289 288 288 287 286 285 284 284 283 283 283 284 284 285 284 284 283
293 288 288 284 283 286 281 280 281 280 277 283 290 294 296 296 295 294 291 288 295 295 296 296 295 296 296 297 297 296 294 292 292 295 299 297 297 300 300 300 300 298 298 299 298 297 296 293 292 291 293 293 291 290 288 287 288 287 287 288 287 288 288 288 289 288 288 288 288 288 287 287 286 285 284 284 283 283 283 284 285 284 285 284 283 283
293 293 289 285 284 284 281 279 279 277 280 287 288 292 295 295 296 293 289 286 292 292 293 294 295 296 296 295 294 293 291 289 291 295 299 297 294 294 297 296 293 292 291 290 290 291 290 290 288 288 289 290 290 288 287 287 287 287 287 285 285 286 287 288 287 287 288 287 286 286 286 286 286 285 284 283 283 283 282 283 284 284 284 284 283 282
288 287 287 283 281 284 282 280 278 282 281 286 288 289 291 293 296 291 280 281 292 290 290 292 291 291 291 291 290 289 288 288 291 296 297 295 294 292 293 293 291 290 290 288 287 287 287 287 288 289 289 288 288 286 286 285 286 285 285 285 284 286 286 286 286 285 285 285 285 285 285 286 285 284 284 283 282 282 282 283 284 284 284 283 283 282
285 285 286 282 283 283 283 281 283 284 288 290 290 289 291 293 291 283 279 285 287 287 288 290 288 289 289 289 289 288 288 291 293 294 294 293 294 293 290 288 288 288 289 289 288 286 286 286 287 287 286 285 285 285 285 285 285 285 284 285 285 286 285 285 285 285 285 284 284 284 285 285 284 284 283 283 282 282 282 283 283 283 283 282 281 281
282 284 284 286 283 282 283 281 281 284 286 288 291 292 290 288 282 281 286 286 286 287 287 289 289 289 289 290 289 289 291 292 292 293 293 293 290 291 292 292 291 291 288 286 286 285 285 285 285 284 284 283 284 284 284 284 284 283 283 283 285 284 283 285 285 285 284 284 284 283 283 283 283 283 283 282 282 282 282 283 283 283 282 281 280 280
280 281 280 282 283 284 284 281 280 276 286 289 290 289 289 286 283 285 285 286 288 288 287 288 289 289 289 290 291 291 290 291 291 291 292 292 292 292 292 292 291 290 290 290 290 286 285 285 285 285 283 283 284 284 284 283 283 282 282 283 283 283 283 284 284 284 284 283 283 283 282 282 282 282 282 282 282 281 281 282 282 282 281 280 280 279
284 280 279 281 285 279 280 278 279 286 287 288 290 283 288 289 288 286 287 287 288 288 289 288 289 289 289 289 290 291 291 290 291 292 292 292 293 293 293 291 289 288 288 287 286 286 284 284 283 283 283 282 283 283 283 282 282 281 282 282 282 282 283 283 282 283 283 282 282 281 282 282 282 282 282 281 281 281 281 281 281 281 280 280 279 278
286 282 284 280 285 283 281 284 286 285 285 287 291 290 291 295 289 286 287 288 287 289 289 289 290 289 290 290 289 289 289 291 291 291 290 291 292 292 292 292 291 290 288 287 286 284 284 283 283 282 282 282 282 282 282 281 283 281 281 281 281 282 283 282 282 282 281 281 281 281 281 281 281 281 281 280 281 281 281 281 281 280 280 280 279 278
284 285 285 282 282 285 284 287 288 285 286 286 289 289 290 289 286 288 289 289 288 289 289 290 291 290 289 290 289 289 289 291 291 291 291 291 291 291 291 291 290 287 287 286 285 283 282 282 281 281 281 281 281 281 282 281 281 282 280 280 280 280 282 282 282 281 280 280 280 280 280 280 279 279 280 280 281 282 282 281 280 280 279 279 279 279
284 283 281 282 285 283 278 286 283 284 285 285 287 288 288 288 288 287 288 288 290 290 291 290 291 291 290 288 288 289 290 290 290 291 291 290 290 291 291 290 290 288 286 286 285 282 281 281 282 282 281 280 279 279 280 280 280 280 280 281 280 281 281 281 281 281 280 280 280 280 280 280 279 280 280 280 281 281 281 281 281 280 280 279 279 279
278 285 278 279 280 281 280 284 284 284 285 286 287 286 286 288 286 285 288 288 290 290 289 290 288 289 290 290 290 288 289 290 289 290 291 291 291 291 291 290 290 289 286 284 283 282 281 281 282 281 281 280 279 278 278 278 279 280 280 280 281 281 281 281 281 280 280 280 281 281 281 280 280 280 280 280 280 280 281 281 281 280 280 279 279 279
279 282 273 280 278 279 282 283 284 285 284 285 285 286 287 288 289 288 287 286 286 287 287 288 286 287 288 290 291 289 288 289 289 289 289 290 291 291 291 290 289 288 286 284 282 281 282 281 281 281 281 280 277 277 277 277 278 280 280 280 281 282 282 282 282 281 281 282 282 282 282 282 282 281 281 281 280 281 281 281 281 281 281 281 280 280
281 278 280 279 277 277 278 280 283 280 278 282 283 285 285 285 285 286 286 286 286 287 287 287 288 288 287 288 289 289 289 290 290 288 289 290 290 290 290 290 289 287 285 282 280 280 280 280 281 280 280 278 275 276 277 277 279 280 281 281 282 283 282 282 282 282 282 282 282 281 282 282 282 281 280 279 279 279 279 281 282 281 280 279 282 284
280 279 279 277 277 277 281 281 283 281 281 283 285 285 286 285 285 285 285 285 286 287 289 288 287 288 288 289 289 287 288 289 290 289 288 289 290 290 290 289 288 287 286 281 279 279 279 280 279 279 278 276 275 275 276 278 280 281 282 283 283 283 283 283 282 282 282 282 281 282 282 282 281 280 279 279 279 278 278 278 280 282 282 282 283 283
Wind_Speed
1 3 3 3 4 5 4 3 4 4 4 3 1 2 2 1 1 3 3 2 1 1 4 7 9 9 11 12 9 7 6 6 6 7 6 6 7 7 8 8 9 9 10 7 9 10 13 13 12 10 8 8 7 8 9 10 10 11 12 10 12 10 9 9 9 8 9 9 7 5 8 8 6 6 5 6 6 7 6 7 7 7 7 8 9 9
0 1 4 4 4 0 1 6 2 2 3 1 4 5 5 1 2 3 2 1 2 0 2 3 6 9 9 8 9 6 6 9 9 9 10 10 9 8 9 10 10 10 3 4 6 6 9 10 9 9 9 8 11 10 11 12 14 12 11 12 11 10 10 10 10 9 9 10 10 10 10 8 6 7 7 6 5 6 5 6 7 7 7 9 9 9
1 3 3 5 4 4 5 5 5 4 2 3 2 2 2 4 1 2 3 1 1 1 6 5 6 11 8 8 10 10 10 10 8 9 11 9 9 9 8 9 9 6 7 6 7 7 8 8 8 8 8 9 12 12 13 12 10 10 11 11 10 11 11 10 10 10 10 8 6 6 5 7 4 2 4 4 4 3 4 4 4 5 8 9 9 9
2 4 4 4 3 6 4 4 3 1 1 1 1 2 3 1 1 2 1 1 1 2 3 4 9 14 12 11 15 17 15 16 11 11 10 8 10 9 10 9 7 7 8 8 8 8 7 9 9 7 8 9 7 6 6 8 11 10 10 9 11 11 11 10 10 10 7 6 5 5 4 4 4 3 3 4 6 6 6 6 6 6 6 8 8 9
3 1 2 3 2 1 2 2 2 2 2 4 3 2 3 1 2 2 0 2 2 4 1 4 7 10 8 8 7 10 15 11 7 6 8 8 9 9 6 6 6 7 6 8 7 7 8 9 10 12 10 7 8 8 9 9 10 8 11 11 11 10 11 9 9 9 7 7 6 5 4 3 4 4 3 4 3 6 6 6 7 8 4 5 6 8
2 2 0 4 0 2 2 3 3 3 2 2 6 8 5 5 1 2 2 5 3 2 0 1 5 6 2 3 6 4 2 3 4 6 9 10 8 6 8 10 7 5 5 5 6 7 10 11 8 6 7 8 7 8 8 8 9 7 7 7 7 6 7 8 8 9 8 8 9 8 8 8 6 6 7 10 10 7 8 9 6 4 5 3 4 4
1 1 1 4 4 2 0 1 4 3 2 0 1 4 3 2 1 2 2 1 2 1 1 0 1 9 9 13 11 8 6 8 5 7 11 8 7 7 10 8 7 8 7 6 5 3 6 7 8 7 8 7 7 7 5 5 6 6 6 6 7 6 6 6 7 8 8 8 8 10 10 8 9 10 6 3 3 5 5 5 6 6 3 3 4 5
3 2 4 1 5 3 2 1 2 5 2 1 1 3 2 0 2 0 0 1 4 1 2 4 3 3 9 18 4 4 6 7 8 9 9 6 7 9 6 6 7 7 6 6 7 6 4 6 8 9 7 7 8 5 5 5 5 6 6 7 7 6 7 6 7 8 8 8 7 7 7 7 7 7 6 6 5 4 5 6 6 5 5 4 4 5
1 5 4 3 2 3 4 0 1 5 2 1 1 3 2 3 3 2 1 1 1 2 6 1 1 1 5 12 14 6 6 6 11 10 10 12 9 7 5 3 5 5 4 5 5 3 3 4 6 6 6 6 6 6 7 6 6 6 5 6 6 7 6 6 8 9 7 8 8 7 7 7 5 5 5 6 7 7 7 8 6 7 6 6 5 5
3 1 2 4 5 4 3 1 4 1 3 2 2 2 3 3 2 2 0 1 2 1 7 4 5 3 7 6 11 5 4 7 7 10 10 7 7 3 6 5 5 4 4 4 4 4 4 4 4 3 6 5 5 5 6 5 5 5 5 6 7 6 6 6 7 9 8 8 8 8 8 8 6 5 5 6 8 7 7 8 8 7 7 6 6 5
1 2 4 1 3 1 4 3 2 5 2 4 3 4 1 1 1 0 1 1 1 4 7 8 9 6 8 4 9 6 4 7 9 4 2 5 7 6 5 4 3 3 3 3 3 4 4 4 4 4 6 5 5 5 5 5 5 5 6 6 7 6 6 7 8 9 9 8 8 9 9 9 8 7 6 6 6 7 6 7 7 8 7 6 6 4
2 2 1 0 3 4 4 4 4 1 1 2 1 2 1 0 2 1 0 2 1 6 1 2 6 6 7 4 4 2 1 1 0 1 3 4 5 6 3 2 3 4 4 5 5 3 4 3 3 3 5 6 5 5 5 5 5 5 5 6 7 6 6 7 7 8 8 9 8 7 9 9 9 8 8 9 8 8 9 8 8 6 6 6 5 5
2 3 2 3 6 2 3 6 4 3 1 1 2 3 3 1 2 2 1 2 5 7 1 1 2 2 17 8 7 8 5 0 3 2 0 2 4 5 4 4 4 4 5 5 5 5 5 5 5 6 6 6 6 7 6 6 5 5 5 6 7 7 6 8 7 8 7 8 8 8 8 8 8 9 8 9 9 9 9 8 8 8 8 6 6 7
2 1 5 2 4 3 3 8 2 2 2 2 5 6 5 2 3 4 4 2 2 1 3 1 1 6 8 6 8 10 10 5 0 1 1 0 2 3 5 5 5 5 5 5 5 6 5 6 6 5 7 7 7 7 8 7 6 5 6 5 6 7 6 6 8 9 8 8 7 7 7 7 7 8 9 8 8 9 9 9 9 9 9 9 10 9
2 3 6 6 2 5 4 7 11 7 9 9 5 8 8 6 3 4 3 5 5 4 0 4 1 8 3 3 2 1 3 4 1 1 1 1 0 2 1 3 5 5 4 5 5 6 7 6 6 7 6 6 7 8 8 7 7 6 6 7 8 8 8 8 8 8 9 8 7 7 7 7 6 7 8 7 7 8 9 9 10 9 9 9 9 10
10 5 3 17 5 13 12 5 6 5 3 4 4 1 3 8 0 3 1 0 1 1 2 1 6 2 4 3 5 4 6 7 5 4 3 6 5 5 5 5 5 5 5 5 5 5 5 6 6 6 6 7 6 7 7 8 8 8 8 8 9 9 9 9 8 9 10 9 8 8 8 8 7 6 5 6 6 6 8 9 10 10 9 9 9 8
3 4 2 4 6 17 13 7 5 9 4 6 3 7 8 1 1 1 1 1 2 2 9 4 7 9 3 11 11 14 13 10 4 3 4 5 6 5 5 3 1 4 6 6 6 6 7 6 6 7 7 6 7 7 9 9 9 9 9 9 9 8 7 9 9 9 9 9 9 9 8 7 7 7 7 7 7 7 5 7 8 9 9 8 8 8
6 3 2 2 4 0 2 1 0 3 0 6 4 6 2 3 3 3 4 0 2 7 8 4 9 13 3 11 2 3 6 6 6 6 4 6 7 7 7 6 3 4 5 6 7 6 6 6 6 5 5 6 7 8 8 9 8 8 8 9 9 9 10 9 9 9 8 8 8 7 7 7 7 6 5 5 6 5 5 5 5 5 7 8 7 6
4 2 2 2 3 3 3 1 1 2 4 3 4 1 5 2 4 2 1 5 4 4 4 4 7 11 9 14 2 5 1 5 6 6 6 6 6 5 6 7 1 2 1 1 2 3 2 3 4 5 6 6 6 6 7 7 8 7 6 7 8 10 9 8 7 6 6 7 6 6 7 7 6 5 4 4 4 4 6 6 5 5 6 6 6 6
3 5 1 2 3 0 1 3 8 5 1 1 2 1 1 2 1 5 5 1 2 5 2 12 5 8 8 5 2 5 4 5 8 6 4 2 3 1 2 5 1 4 4 4 4 4 3 4 4 5 5 6 7 6 5 6 5 7 7 7 7 6 6 6 7 7 8 8 7 7 7 7 7 7 8 7 7 6 7 6 6 6 6 7 6 6
2 3 4 1 5 2 1 5 9 10 8 0 1 2 0 1 1 3 3 5 5 3 4 5 10 10 8 5 7 8 5 4 3 4 3 2 3 4 2 1 1 2 3 4 5 4 3 4 2 2 3 4 3 4 5 5 6 6 5 6 7 8 7 8 8 7 8 7 8 7 8 8 7 7 7 8 9 9 7 6 7 6 6 5 7 6
2 4 7 3 1 4 6 6 9 10 14 12 12 11 11 7 4 4 8 1 1 5 4 4 13 12 8 1 2 3 4 6 5 5 6 7 6 1 3 1 1 1 4 5 5 2 4 3 1 1 1 2 4 4 5 5 5 6 7 7 7 6 7 8 9 8 7 7 7 7 8 8 6 6 5 7 7 8 7 6 6 6 5 6 6 7
5 2 4 5 8 10 7 0 2 2 2 5 9 10 11 8 6 5 9 4 1 4 4 2 4 19 4 6 4 4 4 2 1 4 6 6 2 2 4 4 2 1 3 3 6 6 4 1 1 4 5 5 5 5 5 5 7 8 7 7 7 8 8 7 7 6 7 7 7 7 7 7 7 7 7 7 6 7 7 6 6 5 7 6 6 5
6 2 1 2 3 3 3 0 1 1 1 1 5 4 4 8 8 7 5 3 4 3 5 4 9 14 13 3 7 7 4 0 5 6 8 4 1 2 0 3 5 1 2 1 2 3 6 4 1 0 2 4 4 5 6 6 6 6 7 7 7 9 8 7 7 7 7 8 8 8 7 8 7 8 8 8 7 7 6 6 6 6 7 6 6 6
4 2 6 3 0 0 1 2 2 2 1 2 2 5 5 4 5 4 2 1 4 5 6 6 13 11 18 4 3 2 1 2 3 4 4 2 4 4 3 2 2 1 1 2 3 5 4 5 5 4 3 4 4 4 5 6 6 6 6 6 8 7 7 7 7 8 8 8 9 9 9 8 8 9 9 9 8 8 7 7 7 6 7 6 6 6
2 2 7 8 10 9 7 5 5 4 7 2 2 3 6 8 5 3 8 4 9 6 9 7 10 12 19 7 1 1 0 4 4 2 3 3 4 5 5 1 3 1 2 3 4 4 5 6 6 6 7 7 7 6 6 6 7 6 6 7 6 7 7 8 7 7 7 7 9 9 9 9 8 10 10 9 8 9 8 8 7 7 6 7 8 7
1 1 1 6 9 10 4 1 1 7 4 6 6 10 7 6 8 6 1 3 10 8 12 10 10 15 21 22 10 10 4 1 1 2 2 3 5 6 5 5 5 4 4 5 3 2 3 5 8 9 8 8 8 7 8 8 8 7 6 7 6 6 7 7 8 7 8 8 8 8 9 9 9 8 8 8 8 7 7 7 7 7 7 6 8 8
2 1 4 3 5 5 1 2 3 3 2 6 8 6 8 7 5 9 11 13 7 5 14 11 15 15 20 19 19 18 12 8 10 8 7 7 7 7 7 5 6 5 6 4 2 3 7 9 8 8 8 8 9 10 9 9 10 9 9 9 6 6 6 7 8 8 8 7 8 9 9 8 7 7 8 7 7 7 7 7 7 7 6 6 7 7
6 5 5 3 7 8 6 6 6 5 3 3 3 5 7 9 6 7 9 14 11 11 17 13 8 11 13 17 22 17 9 10 9 5 4 4 5 3 2 4 6 6 6 6 6 6 8 10 9 8 7 9 8 9 11 10 9 7 7 7 7 6 8 7 7 8 8 8 9 10 7 6 6 6 7 7 7 7 7 7 7 7 7 7 7 6
4 4 4 4 8 10 10 10 11 14 11 7 7 9 5 5 10 14 15 16 16 15 12 12 16 19 15 18 21 18 10 11 12 9 8 7 9 10 9 9 8 6 6 8 9 11 11 11 9 7 7 7 8 9 7 7 8 9 10 9 8 9 9 8 9 9 9 10 11 8 7 7 6 7 7 8 8 8 7 7 7 8 7 7 7 6
7 5 7 3 4 10 14 12 10 11 11 13 11 8 9 11 11 10 11 14 13 12 13 16 20 22 19 17 15 17 17 12 10 12 12 11 9 7 8 8 7 7 10 12 12 11 10 10 9 9 8 8 8 10 10 11 11 9 9 10 11 12 10 9 10 10 10 11 9 7 7 7 7 7 8 8 7 7 7 8 7 7 7 7 6 7
4 2 4 5 6 6 11 10 11 9 8 10 13 10 11 14 16 17 15 9 8 12 15 15 16 18 19 8 9 17 15 9 12 14 13 9 7 6 6 7 7 9 12 13 13 11 10 9 9 9 9 9 9 9 9 10 10 10 11 11 10 11 8 9 10 10 11 10 7 8 8 8 7 8 8 7 8 7 7 7 7 7 7 7 7 6
6 4 4 5 7 9 9 6 8 6 4 7 12 17 19 17 16 14 11 11 16 15 14 13 18 15 15 13 11 14 16 13 13 14 13 14 11 6 6 10 11 10 11 10 12 13 11 10 10 10 10 8 9 9 10 12 9 10 11 11 11 7 9 11 11 10 9 8 8 8 8 8 9 8 8 8 7 7 7 7 7 7 8 8 7 6
5 6 5 4 5 4 8 2 2 3 12 11 11 16 14 16 15 15 16 19 19 15 12 13 13 12 13 15 17 18 18 15 13 14 12 11 8 5 8 9 10 10 10 9 9 10 12 11 9 8 8 9 9 8 8 8 10 12 10 8 6 9 10 10 9 9 9 7 8 8 8 8 8 9 8 7 8 7 7 8 8 7 7 7 7 7
4 5 5 4 3 5 6 3 3 12 12 7 10 5 11 16 16 19 21 21 19 18 16 16 15 16 18 20 20 18 14 11 9 15 19 11 6 8 11 12 14 14 13 13 12 10 11 13 11 9 8 8 8 5 4 5 7 5 4 6 8 9 10 9 8 8 7 8 6 7 8 8 8 8 8 8 8 8 8 8 7 8 7 8 8 8
7 8 4 3 3 2 2 4 8 7 2 1 3 9 11 13 16 13 15 17 18 18 17 17 19 20 19 18 17 15 14 12 9 11 16 15 9 10 12 14 13 12 13 14 12 11 11 12 11 8 8 5 4 2 3 5 4 5 5 5 7 7 7 6 6 7 6 7 8 8 8 9 8 8 8 9 8 9 9 8 9 9 7 7 5 4
5 3 2 3 5 7 4 9 11 5 13 7 9 6 6 8 6 11 13 15 17 16 15 15 16 17 18 18 17 16 8 4 8 15 13 11 10 8 11 16 13 12 12 12 11 12 11 8 6 6 4 3 2 1 2 2 4 4 4 5 5 6 6 7 8 9 9 8 8 8 8 8 9 8 9 9 9 9 9 9 8 7 7 7 7 7
10 9 4 5 4 8 9 11 7 6 12 13 15 15 6 6 7 7 8 13 8 9 11 14 16 17 17 16 16 12 3 5 12 15 13 4 5 10 12 11 10 7 7 8 8 8 7 6 6 3 1 1 1 1 2 4 4 4 5 5 5 6 6 6 8 6 6 7 7 7 7 8 9 9 9 9 10 10 8 7 6 8 8 9 8 7
12 13 8 10 5 5 9 11 10 11 10 6 11 8 10 7 9 4 4 11 4 4 4 5 9 12 13 12 11 6 6 9 12 13 12 2 3 6 7 7 6 6 5 5 5 6 8 8 5 5 3 1 3 2 2 4 5 5 5 4 4 5 6 7 7 7 7 7 6 7 8 8 8 9 10 10 9 9 9 8 8 7 7 6 7 7
11 9 9 11 12 12 10 11 11 5 7 5 5 6 3 3 4 4 8 4 1 7 5 8 7 6 6 7 6 4 4 9 11 11 8 9 7 7 7 8 8 8 8 6 5 2 3 4 5 6 7 6 6 2 2 3 4 5 5 5 4 5 6 6 5 4 4 5 6 6 7 8 9 9 10 9 8 7 8 7 7 8 8 7 6 7
8 8 11 16 14 15 16 12 8 7 5 8 11 6 1 1 3 8 12 1 2 1 3 2 3 4 5 6 5 5 3 4 8 12 12 7 9 8 7 5 3 3 7 8 8 6 5 5 3 5 4 3 1 1 1 3 3 4 4 5 5 7 6 5 5 5 5 6 6 6 7 6 8 9 8 9 9 8 8 7 8 8 8 8 7 7
1 1 3 11 15 14 12 14 13 9 4 3 7 8 2 1 11 8 1 2 5 6 2 2 1 4 5 6 3 3 7 8 9 11 13 11 6 6 7 9 10 9 6 4 6 4 5 5 5 4 2 1 0 0 1 3 4 4 4 4 6 5 4 5 5 5 6 6 6 6 6 6 6 8 8 8 9 9 8 7 8 8 8 7 8 9
5 3 3 4 2 4 7 10 10 11 1 6 6 3 2 5 0 1 3 4 2 5 5 1 1 1 4 7 8 7 6 9 10 10 11 11 9 7 8 10 10 9 11 10 11 6 3 6 6 5 2 0 0 0 0 2 4 4 4 5 4 3 4 4 5 5 6 6 6 6 6 6 8 7 7 8 9 10 9 8 8 8 8 9 8 9
4 6 3 4 4 3 5 6 4 1 0 3 4 2 4 1 4 3 5 9 5 5 7 4 0 1 1 2 6 10 12 11 11 12 13 13 13 11 9 8 7 8 8 6 5 7 5 6 5 3 0 0 0 0 0 3 4 4 4 4 2 4 4 5 5 5 5 5 5 6 6 7 7 7 7 8 8 9 10 9 8 8 8 8 9 8
8 11 5 8 1 5 5 4 3 3 5 3 1 2 2 2 3 2 1 1 4 7 4 7 8 3 1 2 4 5 8 11 11 11 10 12 14 13 12 11 10 10 9 8 8 4 3 5 6 3 1 0 0 0 1 2 5 4 4 2 4 4 5 5 6 6 6 6 6 6 6 6 6 7 7 7 8 9 8 9 9 8 6 7 7 7
1 1 1 2 4 3 3 5 3 3 1 4 2 3 3 3 1 2 2 0 2 5 4 6 8 7 4 1 5 6 7 10 12 13 12 12 12 12 10 9 8 7 7 7 6 4 4 4 3 3 4 2 1 1 1 2 4 5 4 4 4 4 5 6 7 7 7 7 7 7 8 8 7 7 7 6 6 7 7 9 8 8 7 7 6 7
1 3 2 2 2 2 5 2 4 3 2 3 5 4 2 2 2 2 1 4 4 5 5 4 6 7 6 4 3 6 9 10 10 12 11 10 12 12 12 11 11 7 7 8 7 4 4 4 5 6 5 6 2 2 1 3 2 4 5 5 5 6 6 7 7 8 7 8 8 7 8 9 7 7 7 7 6 6 6 6 7 7 7 7 7 7
4 1 3 2 2 6 4 6 5 4 4 5 7 4 3 1 3 4 6 5 5 5 4 7 5 7 6 6 5 5 8 9 9 10 12 12 12 11 12 12 12 11 7 6 5 4 4 5 7 7 6 7 3 3 3 4 5 6 7 6 7 7 8 8 8 8 8 8 7 7 8 8 10 10 7 7 7 7 6 5 6 6 7 7 8 8
1 5 2 2 2 5 6 8 8 9 6 3 1 1 2 2 6 6 5 4 4 5 6 7 5 6 6 9 9 5 7 10 8 7 10 12 13 12 12 12 11 11 10 7 5 5 7 6 8 8 7 7 4 4 4 4 5 6 8 8 8 9 10 9 8 8 9 8 8 8 7 8 8 7 8 7 6 5 5 6 6 6 5 3 4 5
3 7 4 5 7 7 8 7 2 8 3 4 6 8 8 6 3 4 5 6 6 6 6 7 9 7 6 7 7 7 8 9 9 6 8 12 13 14 14 14 12 11 10 6 4 5 6 8 8 8 8 5 3 3 4 4 4 5 6 8 9 11 12 11 10 10 9 8 8 9 9 8 8 8 8 8 8 8 8 10 10 5 6 5 8 11
7 4 4 6 6 10 5 4 1 2 5 6 10 10 10 6 6 5 5 5 5 6 8 9 9 9 9 10 6 5 7 9 12 7 7 10 13 13 13 13 13 14 12 6 5 7 7 8 7 7 7 6 4 4 4 4 5 6 7 8 8 10 11 12 11 9 8 8 7 8 8 9 9 8 8 8 8 8 9 8 8 12 11 9 9 11
Wind_Direction
60 153 173 202 206 180 216 230 232 47 23 25 342 21 317 12 27 76 82 31 343 6 256 241 251 256 261 267 269 264 269 260 250 246 238 228 227 224 228 231 230 227 225 202 194 183 180 181 182 180 171 175 171 174 179 179 184 186 186 175 184 187 180 178 180 178 178 186 193 202 207 212 197 188 169 177 170 175 185 197 203 195 191 189 187 183
7 209 214 215 229 1 214 192 90 77 33 32 30 6 331 87 302 35 113 191 21 77 283 290 287 264 261 266 268 263 260 255 244 247 246 246 241 233 228 234 234 235 247 209 203 186 174 175 174 167 166 168 171 190 185 189 190 187 184 183 182 180 185 186 185 180 185 191 195 190 196 192 188 184 171 175 172 168 172 194 207 199 190 190 189 182
93 199 224 203 117 97 48 48 56 42 359 34 45 356 345 296 149 92 65 305 119 93 265 275 294 282 275 279 280 272 258 251 230 226 233 232 237 239 232 232 234 228 229 206 201 181 170 167 165 165 173 183 187 185 188 192 185 183 187 187 179 182 185 188 184 180 190 189 188 186 187 180 184 180 162 147 157 149 170 191 221 212 187 189 185 181
150 223 245 91 94 90 63 68 41 14 58 17 161 195 245 261 60 291 23 13 243 196 274 351 308 285 275 255 251 251 246 248 238 237 244 226 236 238 234 225 217 218 212 206 194 188 171 166 168 166 179 190 183 184 188 187 190 189 192 186 180 184 187 185 186 183 181 175 165 156 143 149 135 177 156 155 155 170 172 203 216 241 202 182 182 176
177 101 328 62 70 129 112 86 117 112 229 198 218 227 235 215 113 98 47 269 234 228 28 328 292 281 262 254 259 248 238 246 255 245 247 242 231 235 250 265 226 218 202 206 200 187 173 172 182 186 186 172 182 185 188 190 192 196 195 190 184 181 186 185 178 175 158 143 138 130 94 83 68 49 115 146 167 168 176 189 212 222 227 187 178 178
113 290 28 106 253 106 130 133 189 152 229 236 202 196 210 265 347 94 50 18 358 331 86 351 354 291 309 304 282 308 28 243 245 221 235 236 236 241 247 243 252 253 226 202 202 194 180 183 187 182 176 182 190 192 195 190 192 187 188 187 180 176 178 182 177 168 156 161 159 158 157 164 177 183 175 194 194 179 190 201 196 206 212 205 169 180
86 282 298 126 125 103 143 191 199 154 204 154 294 0 0 310 55 93 326 46 316 220 248 197 87 288 305 288 274 292 292 276 260 226 240 239 230 225 229 229 221 221 230 236 225 210 158 187 178 185 183 186 188 204 183 181 186 184 177 181 178 176 174 173 166 165 155 161 173 180 187 187 190 191 208 178 170 185 190 172 184 191 185 187 175 179
112 160 59 8 96 130 117 164 186 158 150 253 311 331 343 77 108 231 107 165 238 348 293 149 162 228 302 285 264 223 252 266 271 257 250 236 228 228 220 201 205 207 200 187 205 214 198 166 171 180 186 185 192 181 171 175 178 183 179 177 178 172 169 170 156 167 164 167 173 172 183 188 193 196 185 176 188 195 169 175 177 168 184 183 183 184
140 162 149 146 153 133 178 160 150 162 144 185 232 299 51 60 80 82 127 266 250 45 295 156 177 263 241 276 296 269 270 252 248 251 256 253 243 228 210 160 118 115 113 139 156 150 165 147 166 165 173 184 169 167 170 173 175 177 174 171 170 173 164 166 156 162 167 164 170 170 174 186 198 180 189 169 180 187 173 182 174 173 178 181 184 190
359 128 177 152 143 180 99 35 348 196 150 253 198 87 104 75 63 67 21 75 321 19 258 174 189 234 263 240 276 290 219 248 249 247 248 255 218 144 102 90 93 86 76 62 100 105 84 82 86 117 146 149 164 160 158 162 162 172 169 170 171 178 162 164 156 162 169 166 166 174 178 182 190 188 196 178 185 185 168 182 177 177 176 183 181 182
91 207 167 78 176 103 123 63 48 42 72 135 161 104 66 91 103 304 90 86 23 256 254 189 197 184 288 223 212 245 232 200 237 266 52 69 71 73 83 105 122 128 124 133 118 114 113 103 104 95 125 140 128 145 150 159 165 170 170 172 175 181 161 163 162 166 175 173 174 178 179 183 185 189 192 193 184 176 173 180 177 181 183 178 180 166
141 53 4 123 64 119 114 74 27 16 54 118 132 129 126 330 38 34 331 62 180 261 12 329 188 198 232 280 269 231 344 78 130 28 158 115 114 112 136 148 159 152 163 153 140 150 138 131 129 137 140 143 148 144 157 168 167 172 176 172 177 185 168 164 168 171 174 178 183 179 177 183 187 187 193 198 190 184 186 190 181 177 166 175 169 174
215 211 143 63 309 140 142 87 10 34 13 3 124 104 108 248 71 315 94 247 202 241 235 345 353 3 248 221 279 313 306 223 203 195 108 134 137 161 175 181 184 175 166 165 160 163 174 187 182 180 178 155 163 173 176 176 173 173 178 178 176 193 176 166 168 177 176 180 189 185 183 184 186 196 196 196 190 187 189 186 175 172 180 163 171 187
265 161 149 101 38 271 179 129 145 40 247 207 156 151 118 199 212 241 230 205 249 302 275 341 349 257 275 290 212 217 233 251 161 101 126 166 161 145 168 192 191 191 181 172 165 173 185 194 196 194 185 178 171 176 179 177 173 175 176 180 180 193 189 171 169 177 185 191 191 190 190 192 189 201 204 200 188 187 184 179 179 180 182 179 188 181
184 315 233 126 256 170 213 192 175 167 176 199 192 163 175 161 174 213 177 205 214 211 280 289 66 235 104 241 308 299 328 317 259 243 256 277 211 194 177 190 181 186 184 160 170 185 189 195 185 185 188 190 185 176 176 175 175 172 179 183 185 189 194 183 177 173 184 189 191 193 196 198 198 204 205 206 195 181 183 181 181 185 183 184 187 187
208 225 184 187 175 162 184 204 167 122 157 224 206 211 239 224 102 207 182 99 282 19 313 231 216 232 192 310 278 284 312 316 311 313 343 313 335 339 293 243 212 188 187 186 195 211 209 192 182 184 187 184 183 181 178 178 175 179 186 186 190 191 190 189 179 179 181 190 189 193 196 201 203 209 206 209 203 195 185 184 185 185 185 188 184 188
131 229 66 95 122 174 194 170 197 144 177 219 140 216 207 54 136 353 1 33 116 26 255 174 290 264 297 274 252 254 243 255 300 333 323 300 280 262 275 341 143 190 194 202 209 217 221 204 196 190 186 183 177 180 185 184 183 182 180 185 189 192 191 192 187 183 183 184 185 194 192 192 198 202 206 208 208 201 192 183 187 184 190 187 186 185
140 196 323 95 192 314 1 300 168 30 160 106 196 221 61 45 85 150 217 37 190 214 264 133 243 280 22 291 309 224 243 228 249 263 257 280 284 287 281 294 216 207 206 208 210 219 224 216 205 196 191 187 189 185 183 189 185 183 182 184 185 189 194 197 190 186 185 186 189 192 196 199 197 198 204 210 213 205 194 198 183 170 176 191 187 177
152 259 233 353 2 2 346 41 28 46 31 125 181 316 134 247 259 254 111 247 240 236 283 258 240 266 232 250 328 11 145 208 224 226 222 234 256 273 281 282 248 167 169 256 284 281 249 213 203 188 186 185 186 191 189 186 181 180 184 187 186 192 196 193 191 183 181 181 186 189 195 197 196 196 192 202 205 203 205 204 196 186 181 174 169 157
122 195 297 327 7 174 60 144 195 217 345 9 3 39 55 102 171 153 201 241 101 250 222 272 265 261 232 250 135 221 197 196 214 222 199 149 106 111 248 254 339 4 2 332 308 278 230 209 194 177 179 185 184 181 189 187 181 185 186 183 189 189 190 192 192 182 184 187 185 188 187 195 192 193 189 187 192 204 209 207 197 189 183 183 165 165
265 142 232 248 306 109 201 200 212 176 157 57 48 249 223 118 282 110 310 187 184 216 214 267 285 250 255 197 232 236 218 222 145 95 60 24 293 281 243 127 42 20 324 286 275 275 240 213 187 173 179 185 186 176 177 186 192 188 186 191 189 188 191 197 197 185 190 182 191 184 190 193 194 200 189 186 192 200 201 196 190 188 180 150 175 157
188 153 194 102 33 239 233 204 202 186 186 184 184 201 190 159 180 204 254 182 185 207 223 221 256 280 247 86 12 49 58 83 54 46 1 349 323 4 131 89 85 280 285 283 264 278 23 52 89 113 113 148 166 195 193 197 184 194 197 194 191 190 198 196 200 193 185 184 186 191 192 192 190 189 185 184 189 196 197 189 184 178 160 170 171 167
166 149 148 175 205 207 216 286 225 52 208 220 192 214 199 195 184 168 222 235 181 249 261 200 318 264 263 133 98 59 42 73 115 347 324 295 235 152 167 166 192 227 240 321 349 337 322 315 200 192 190 194 195 203 205 206 201 201 198 191 194 194 206 197 199 191 181 183 188 198 192 187 186 178 188 188 189 191 192 190 184 170 172 171 164 170
75 159 135 253 91 23 42 159 62 216 93 336 263 236 174 212 200 200 197 181 183 196 209 235 239 268 263 66 323 287 274 196 297 284 272 255 310 307 179 203 201 171 50 332 270 301 293 283 322 120 232 235 221 215 215 216 214 211 206 200 192 202 200 199 194 188 182 184 193 193 192 192 187 182 189 196 199 193 187 182 180 168 174 169 156 162
160 232 176 166 179 78 2 4 341 4 18 223 216 223 222 227 195 202 176 72 247 202 200 178 244 248 277 103 228 78 116 273 244 249 184 228 275 261 271 355 38 127 211 213 229 239 258 280 267 248 230 242 254 251 239 228 222 219 219 204 203 203 198 198 195 190 190 184 188 192 194 196 187 191 192 195 196 199 188 184 174 171 173 164 164 163
165 212 171 189 199 206 216 191 214 228 223 245 225 241 225 212 209 119 209 158 231 220 221 219 244 256 275 253 268 104 230 220 248 183 197 191 222 266 289 268 241 247 262 254 225 193 210 230 238 226 212 206 209 213 229 234 227 223 221 221 207 200 198 200 193 195 190 191 189 195 196 194 191 196 194 191 194 196 190 182 174 171 174 168 168 165
147 348 198 207 208 220 217 189 230 157 132 187 220 206 220 213 206 204 142 202 217 228 240 239 246 268 266 274 280 274 213 206 300 332 310 281 270 248 236 232 234 225 233 247 245 205 213 217 221 223 219 207 202 201 206 215 222 221 220 225 220 210 200 199 192 193 192 193 196 196 202 193 196 193 194 192 191 190 184 177 172 169 173 169 166 167
78 274 263 297 270 267 322 262 357 62 155 218 215 231 221 222 202 194 205 226 211 234 254 234 236 244 263 278 276 271 275 273 273 271 274 275 267 256 233 225 228 245 254 260 269 268 263 253 237 229 227 217 214 204 203 205 206 207 208 215 216 216 207 204 193 194 194 191 199 206 205 200 190 190 193 193 190 188 182 170 168 170 168 162 165 167
135 211 233 261 268 274 281 289 290 284 237 259 235 223 217 222 221 212 229 237 227 222 238 250 254 253 262 267 270 272 280 276 276 279 267 275 299 294 270 265 268 277 300 301 273 265 260 259 256 247 232 229 224 215 212 203 204 207 215 212 202 203 215 202 194 198 194 195 205 212 198 191 192 186 188 189 191 187 182 175 169 165 164 169 170 165
93 244 241 197 252 261 266 267 273 273 271 242 240 256 256 230 222 220 229 233 234 243 255 268 270 263 258 266 270 280 292 288 293 297 294 292 279 274 271 270 269 280 287 285 278 268 267 270 269 258 245 232 222 223 221 215 209 205 205 209 201 201 211 185 201 198 199 202 210 199 187 187 182 181 179 186 190 191 181 173 168 164 164 169 167 163
145 231 185 157 223 262 259 252 248 252 253 265 260 249 249 262 266 244 239 242 245 256 258 257 259 265 258 252 278 288 278 286 296 288 283 278 278 267 260 262 275 287 282 275 272 267 266 270 272 275 272 257 229 219 212 210 209 205 206 206 202 204 200 188 200 202 199 211 204 186 182 183 186 171 182 184 183 183 175 171 163 161 159 155 153 155
146 264 136 153 201 246 251 244 247 243 241 246 260 249 231 231 241 248 244 231 225 233 236 243 250 255 265 275 262 270 279 282 282 280 278 277 267 269 266 266 264 260 265 270 274 276 272 268 270 269 266 264 254 226 213 209 208 197 206 209 207 205 182 193 204 201 206 208 190 188 186 186 177 177 181 174 181 176 173 162 155 156 154 150 150 153
172 175 147 167 202 240 246 184 227 231 240 248 234 235 227 224 229 243 251 242 237 230 236 235 242 249 265 271 270 272 274 275 270 271 278 277 272 258 253 259 259 254 254 261 270 278 277 268 265 265 263 261 257 244 220 210 202 203 209 206 210 175 183 201 204 204 206 201 193 191 187 179 181 180 176 181 173 169 161 160 155 153 151 159 158 147
175 172 180 160 219 238 252 167 218 235 230 229 225 226 218 225 223 230 238 232 233 225 232 238 254 263 265 268 262 260 262 260 266 269 252 255 276 264 254 255 255 259 265 267 268 272 277 280 273 266 260 258 258 242 232 204 200 211 207 199 166 178 197 196 205 201 204 197 196 189 182 180 178 180 177 170 168 163 162 162 164 159 156 147 145 152
182 189 203 179 192 232 267 123 197 227 239 229 241 222 214 224 223 224 232 235 238 238 240 249 253 251 249 249 255 261 269 274 266 274 279 273 262 263 263 264 269 274 281 282 276 270 272 279 283 282 283 281 277 263 194 207 212 198 163 170 182 190 191 199 197 200 198 196 193 181 181 179 175 174 168 166 163 163 165 164 156 154 155 156 161 163
186 186 186 223 175 313 272 207 239 227 184 321 265 235 224 220 222 230 248 248 245 242 239 240 243 250 256 262 264 265 265 271 279 267 268 274 264 263 270 267 269 275 279 276 276 276 276 277 278 280 281 287 311 278 197 212 181 163 191 169 181 188 193 190 194 201 192 195 189 186 182 174 174 170 163 163 163 163 165 164 163 159 155 149 147 140
187 188 187 254 180 221 213 239 248 331 310 278 275 242 196 203 191 199 233 243 237 238 239 240 245 251 255 257 261 264 275 313 286 272 260 260 271 264 257 266 265 263 262 270 272 274 276 281 292 295 299 314 318 195 208 174 152 161 157 173 192 182 190 186 197 200 196 193 187 184 178 173 166 165 163 163 163 167 166 163 159 151 144 143 149 151
193 203 168 216 222 191 234 256 260 241 243 250 240 258 232 214 214 201 207 252 252 242 230 234 239 246 253 259 262 272 326 280 276 274 273 269 232 250 256 261 271 271 275 281 301 310 316 321 332 3 14 299 279 234 186 154 158 159 178 194 188 179 193 193 206 199 191 192 185 175 169 166 162 161 162 163 169 168 166 161 153 151 154 152 152 154
201 201 190 204 235 203 220 230 236 242 241 238 263 247 253 215 206 170 208 254 258 296 320 287 253 248 254 262 269 272 262 263 263 269 284 310 219 247 268 291 335 339 346 4 12 349 339 334 334 323 342 313 273 261 167 159 153 161 190 193 192 191 196 206 203 193 190 185 171 165 161 159 159 160 163 167 168 162 158 157 153 145 138 137 136 138
198 199 199 219 220 229 237 236 239 218 255 239 255 263 269 178 179 129 268 295 67 19 23 22 2 359 352 352 330 305 225 247 261 282 333 4 1 323 345 339 343 342 329 319 310 279 281 300 324 318 311 300 281 231 158 148 151 174 185 191 176 189 210 210 202 189 171 158 154 151 153 156 158 161 161 158 152 150 149 139 133 140 139 137 134 135
202 214 203 218 221 228 227 246 265 263 256 261 262 260 30 46 115 206 230 286 265 250 350 340 345 341 6 359 9 358 273 272 295 303 316 336 0 344 325 324 293 262 296 305 301 320 320 313 289 277 283 283 263 147 144 141 158 195 191 176 177 208 203 189 169 156 149 146 144 147 152 154 156 154 153 149 148 143 138 141 139 137 136 134 131 129
240 191 242 212 220 222 225 232 236 262 234 215 262 259 208 351 240 241 98 218 265 313 291 291 320 353 0 347 324 269 277 294 305 316 322 328 331 306 302 306 317 317 290 260 259 290 302 300 297 296 311 348 50 99 144 148 180 203 180 177 206 209 183 157 152 143 140 142 143 143 142 142 138 139 138 137 135 135 133 133 134 135 135 132 135 134
202 194 205 209 212 241 229 237 235 235 322 33 317 337 105 197 59 137 277 296 249 293 301 288 82 315 46 338 324 306 302 313 316 315 311 311 316 313 309 309 309 301 306 318 318 309 288 297 291 284 270 306 354 351 259 153 190 190 185 192 218 182 144 139 133 133 132 130 130 131 131 132 133 131 133 137 138 133 132 132 130 130 130 132 131 131
204 247 212 236 178 227 218 233 219 213 232 298 52 145 284 161 146 91 16 321 340 318 306 330 28 96 44 357 308 319 316 317 315 318 320 315 314 315 312 305 295 297 297 284 263 288 316 290 289 280 342 1 5 1 211 166 194 187 182 209 193 124 116 116 118 116 115 117 118 119 122 126 126 127 130 133 130 129 131 134 133 132 139 139 138 138
159 225 200 247 183 191 230 245 226 227 187 250 132 233 254 312 106 132 158 213 299 316 320 331 318 330 354 299 293 293 304 301 300 299 303 301 307 308 308 308 306 303 297 291 289 292 285 280 287 269 273 328 42 342 203 183 177 180 172 194 124 127 124 122 118 116 116 117 117 115 117 113 116 122 124 128 130 130 132 132 134 131 134 133 132 134
350 108 103 123 274 292 265 226 211 117 17 339 295 217 220 273 348 119 152 200 229 238 272 285 297 305 314 355 318 303 285 289 299 302 304 304 299 296 296 299 300 289 284 288 286 268 259 283 276 249 237 252 205 177 170 170 167 172 181 142 124 124 125 124 121 121 124 122 121 123 121 114 108 108 112 113 119 127 136 138 138 136 138 136 137 139
290 61 58 166 278 345 278 18 77 294 310 335 311 303 274 216 223 172 204 223 245 267 284 278 273 292 294 291 243 260 284 287 291 291 292 291 294 296 302 302 300 295 280 283 271 252 247 240 253 246 230 227 222 162 167 134 131 144 136 133 127 124 124 122 124 124 124 124 123 122 119 118 120 115 108 108 107 113 121 125 131 136 139 144 146 145
295 65 59 265 185 214 236 285 292 291 263 260 259 270 306 290 229 219 211 230 244 266 254 266 293 296 293 295 270 245 266 278 282 289 294 295 294 298 300 300 300 306 286 244 254 226 243 236 239 242 231 227 214 167 162 145 143 144 138 137 134 131 126 127 133 132 131 131 129 126 124 120 122 120 119 120 124 126 125 126 134 138 147 157 156 152
168 13 201 250 229 271 311 305 295 288 310 293 268 221 213 278 308 300 286 282 262 261 279 280 243 244 274 283 295 280 271 277 272 270 281 289 295 298 298 296 295 289 287 279 252 217 233 241 241 237 227 226 204 186 174 167 156 151 149 147 143 139 135 135 132 131 131 133 129 126 127 126 127 128 125 122 107 94 110 138 138 126 110 102 136 147
273 256 226 273 286 278 247 256 275 287 306 296 319 300 306 298 273 256 282 303 302 301 291 294 297 289 270 269 274 278 270 275 282 280 284 287 289 293 297 298 296 293 284 264 239 229 238 239 238 236 226 219 208 205 191 178 169 161 161 155 153 148 144 144 142 142 143 142 139 139 138 134 130 125 120 116 113 105 85 71 83 98 119 123 123 130
229 217 222 229 224 251 261 247 230 272 273 284 290 295 293 298 303 311 299 284 286 288 289 296 303 306 310 305 294 272 273 279 287 293 285 285 287 287 287 289 293 294 291 268 243 247 233 239 231 226 220 204 189 203 201 190 182 172 171 168 161 155 150 148 146 146 144 142 144 145 140 136 131 130 126 125 122 118 114 106 83 88 96 99 103 118